[[{"header":{"parameterUnit":"m.s-1","parameterCategory":2,"la1":30.2991,"la2":30.254,"lo1":-89.0895,"lo2":-89.0444,"dy":0.0017,"dx":0.0017,"nx":28,"ny":28,"refTime":"2024-08-02T09:00:00:Z","depth":"0","parameterNumber":2,"parameterNumberName":"U-component_of_CURRENTS"},"data":[0,0,0,0,0,0,0,0,0,0,0,0,0,0,0,0,0,0,0,0,0,0,0,0,0,0,0,0,0,0,0,0,0,0,0,0,0,0,0,0,0,0,0,0,0,0,0,0,0,0,0,0,0,0,0,0,0,0,0.2655,0.2656,0,0.2767,0.2768,0.2769,0.2786,0.2785,0.2785,0.2785,0.276,0.276,0.276,0,0,0,0,0,0,0,0,0,0,0,0,0,0.2376,0.2381,0.2654,0.2656,0.2658,0.2767,0.2768,0.2769,0.2786,0.2785,0.2785,0.2784,0.276,0.276,0.276,0,0,0,0,0,0,0,0,0,0,0,0,0,0.2488,0.2382,0.2654,0.2684,0.2688,0.2767,0.2768,0.2769,0.2786,0.2785,0.2785,0.2784,0.276,0.276,0.2759,0.2772,0,0,0.2759,0.2758,0,0,0,0,0,0,0,0,0.2482,0.2498,0.2678,0.2682,0.2687,0.2767,0.2661,0.2765,0.2786,0.2743,0.2785,0.2784,0.2754,0.2754,0.2771,0.2771,0.277,0.2759,0.2758,0.2758,0.2758,0,0,0,0,0,0,0,0.2474,0.2493,0.2693,0.268,0.2686,0.2665,0.268,0.268,0.2744,0.2747,0.275,0.2771,0.2754,0.2771,0.277,0.277,0.2759,0.2758,0.2758,0.2758,0.2811,0.2812,0,0,0,0,0,0,0.2478,0.2486,0.269,0.2697,0.2587,0.2672,0.2688,0.2737,0.2747,0.2751,0.2772,0.2772,0.2772,0.277,0.2769,0.2786,0.2758,0.2758,0.2758,0.2809,0.2811,0.2813,0,0,0,0,0,0,0.2472,0.2496,0.2685,0.2596,0.262,0.2678,0.2732,0.274,0.2759,0.2769,0.2768,0.2784,0.2771,0.2769,0.2769,0.2785,0.2758,0.2758,0.2807,0.281,0.2812,0.2818,0,0,0,0,0,0,0.2464,0.2494,0.2509,0.2598,0.2625,0.2733,0.2734,0.2743,0.2776,0.2777,0.2779,0.2776,0.277,0.277,0.2769,0.2784,0.2757,0.2805,0.2809,0.2811,0.2816,0.2821,0.2825,0,0,0,0,0,0.2454,0.249,0.2509,0.2533,0.2653,0.2734,0.2745,0.2779,0.2777,0.279,0.2788,0.2776,0.2789,0.277,0.2769,0.2784,0.2804,0.2808,0.2811,0.2814,0.282,0.2824,0,0,0,0,0,0,0.2366,0.2498,0.2521,0.2592,0.2656,0.2739,0.2755,0.2782,0.2795,0.2785,0.2784,0.2781,0.2792,0.2792,0.2772,0.2814,0.28,0.2803,0.2803,0.2808,0.2812,0.2784,0.2757,0,0,0,0,0,0.2359,0.2427,0.2531,0.2582,0.2617,0.2683,0.2713,0.2745,0.2782,0.2788,0.2791,0.2797,0.281,0.2809,0.2818,0.2829,0.2825,0.2846,0.285,0.2853,0.2833,0.2867,0.2872,0.2825,0.2825,0.2825,0,0,0.234,0.2418,0.2455,0.2567,0.2617,0.2669,0.2698,0.2756,0.2781,0.278,0.2793,0.2806,0.2817,0.2835,0.2841,0.2832,0.2865,0.2858,0.286,0.2838,0.2871,0.2876,0.2879,0.2827,0.2827,0.2826,0,0,0.2349,0.2406,0.2471,0.2522,0.2611,0.2652,0.267,0.2754,0.2769,0.2797,0.2806,0.2824,0.2841,0.2855,0.2864,0.2898,0.2888,0.2913,0.2904,0.2939,0.2942,0.2945,0.2938,0.294,0.2914,0.2914,0.2914,0,0.2307,0.2411,0.2491,0.2554,0.2579,0.2645,0.2685,0.2724,0.2787,0.2785,0.2797,0.2835,0.285,0.287,0.2889,0.2903,0.2908,0.2879,0.2941,0.2944,0.2947,0.2939,0.2941,0.2915,0.2914,0.2914,0.2914,0,0.2376,0.2434,0.2469,0.2568,0.2602,0.2646,0.2711,0.273,0.2749,0.278,0.2804,0.2839,0.2853,0.2884,0.2893,0.2928,0.2919,0.2942,0.2919,0.2951,0.2942,0.2944,0.2916,0.2915,0.2915,0.2915,0,0,0.2334,0.2487,0.2492,0.2523,0.2603,0.2641,0.2665,0.2705,0.2708,0.2762,0.2768,0.282,0.2836,0.2849,0.2882,0.2919,0.2952,0.2937,0.2938,0.2912,0.2998,0.2748,0.2726,0.299,0.2991,0.2992,0.298,0,0.2347,0.2459,0.2518,0.2564,0.2614,0.2639,0.2651,0.2681,0.2705,0.2725,0.2769,0.2792,0.2827,0.284,0.2885,0.2935,0.296,0.2951,0.2985,0.2985,0.2745,0.272,0.2535,0.2486,0.2982,0.2982,0.2982,0,0.2385,0.2454,0.252,0.2564,0.258,0.2596,0.2591,0.2615,0.2647,0.2663,0.2692,0.273,0.2779,0.2821,0.2898,0.2891,0.2936,0.2979,0.298,0.2737,0.2736,0.2539,0.2472,0.2407,0.2985,0.2985,0.2985,0,0.2332,0.2431,0.2473,0.2495,0.2568,0.2556,0.2565,0.2585,0.2588,0.2623,0.2627,0.2689,0.2716,0.2794,0.2851,0.289,0.2923,0.2992,0.2804,0.2787,0.2623,0.2588,0.2473,0.3042,0.3042,0.3042,0.3042,0,0.2327,0.2348,0.2452,0.2474,0.2476,0.2521,0.2503,0.2518,0.2536,0.2533,0.2592,0.2601,0.2715,0.2743,0.2822,0.2764,0.2892,0.2763,0.2755,0.2616,0.2582,0.2512,0.2522,0.3042,0.3042,0.3042,0.3042,0,0.2282,0.2351,0.2396,0.2461,0.2465,0.2464,0.2466,0.2458,0.2475,0.2475,0.2482,0.2533,0.2541,0.2606,0.2705,0.2674,0.258,0.2648,0.2434,0.2395,0.2104,0.2121,0.1937,0.191,0.2427,0.242,0.2415,0,0.2277,0.2307,0.2379,0.2384,0.241,0.2412,0.2403,0.2423,0.2416,0.2427,0.2423,0.2418,0.2401,0.2373,0.2317,0.2302,0.2357,0.2092,0.2113,0.2,0.202,0.2038,0.2036,0.1933,0.1924,0.1916,0.191,0,0.2252,0.2277,0.2329,0.2355,0.2353,0.2348,0.234,0.2324,0.2337,0.2324,0.2294,0.2276,0.2175,0.2014,0.1903,0.19,0.1923,0.193,0.1912,0.1653,0.1575,0.1573,0.2023,0.1845,0.1851,0.1856,0.186,0.1862,0.2217,0.2247,0.2311,0.2316,0.2316,0.2282,0.2216,0.2213,0.2177,0.2077,0.2139,0.1984,0.1777,0.1573,0.1547,0.1275,0.146,0.1224,0.1269,0.1311,0.1202,0.1432,0.1171,0.1173,0.1175,0.1177,0.1179,0,0.2179,0.223,0.2251,0.2258,0.2215,0.2226,0.2165,0.2059,0.1964,0.1872,0.179,0.1456,0.1227,0.1073,0.076,0.0649,0.0741,0.063,0.0695,0.0749,0.1027,0.0918,0.0467,0.0467,0.0467,0.0467,0.0467,0.0467,0.2173,0.2203,0.222,0.2155,0.2127,0.1993,0.1916,0.1778,0.1658,0.1359,0.1105,0.0989,0.0762,0.0455,0.0234,0.0235,0.0321,0.0199,0.0357,0.0612,0.0676,0.0737,0.0637,0.0134,0.0134,0.0046,0.0045,0.0044]},{"header":{"parameterUnit":"m.s-1","parameterCategory":2,"la1":30.2991,"la2":30.254,"lo1":-89.0895,"lo2":-89.0444,"dy":0.0017,"dx":0.0017,"nx":28,"ny":28,"refTime":"2024-08-02T09:00:00:Z","depth":"0","parameterNumber":3,"parameterNumberName":"V-component_of_CURRENTS"},"data":[0,0,0,0,0,0,0,0,0,0,0,0,0,0,0,0,0,0,0,0,0,0,0,0,0,0,0,0,0,0,0,0,0,0,0,0,0,0,0,0,0,0,0,0,0,0,0,0,0,0,0,0,0,0,0,0,0,0,-0.0418,-0.0419,0,-0.0457,-0.0457,-0.0457,-0.0464,-0.0464,-0.0464,-0.0464,-0.0386,-0.0384,-0.0381,0,0,0,0,0,0,0,0,0,0,0,0,0,-0.0317,-0.0319,-0.0418,-0.0419,-0.042,-0.0457,-0.0457,-0.0457,-0.0464,-0.0464,-0.0464,-0.0464,-0.0386,-0.0384,-0.0381,0,0,0,0,0,0,0,0,0,0,0,0,0,-0.0355,-0.0319,-0.0418,-0.0431,-0.0433,-0.0457,-0.0457,-0.0457,-0.0464,-0.0464,-0.0464,-0.0464,-0.0387,-0.0384,-0.0381,-0.0358,0,0,-0.0371,-0.0369,0,0,0,0,0,0,0,0,-0.0353,-0.0358,-0.0428,-0.043,-0.0432,-0.0459,-0.0393,-0.0419,-0.0464,-0.0447,-0.0464,-0.0464,-0.0402,-0.0398,-0.04,-0.0354,-0.0351,-0.0371,-0.0369,-0.0367,-0.0366,0,0,0,0,0,0,0,-0.035,-0.0356,-0.0429,-0.0429,-0.0432,-0.0424,-0.0429,-0.0398,-0.0418,-0.0449,-0.0451,-0.0462,-0.0402,-0.0403,-0.0398,-0.035,-0.0371,-0.0368,-0.0366,-0.0365,-0.0171,-0.0168,0,0,0,0,0,0,-0.0356,-0.0354,-0.0428,-0.043,-0.0397,-0.0426,-0.0432,-0.0447,-0.0421,-0.0419,-0.0462,-0.0462,-0.0409,-0.0402,-0.0395,-0.0304,-0.0367,-0.0364,-0.0362,-0.0174,-0.017,-0.0167,0,0,0,0,0,0,-0.0354,-0.0362,-0.0426,-0.0396,-0.0404,-0.0428,-0.0445,-0.0448,-0.0449,-0.0433,-0.0428,-0.046,-0.0409,-0.04,-0.0354,-0.0303,-0.0363,-0.036,-0.0178,-0.0173,-0.0169,-0.016,0,0,0,0,0,0,-0.0351,-0.0361,-0.0368,-0.0397,-0.0406,-0.0436,-0.0445,-0.0449,-0.0458,-0.0458,-0.043,-0.0423,-0.0408,-0.0359,-0.0351,-0.0299,-0.0357,-0.0182,-0.0176,-0.017,-0.0164,-0.0156,-0.0148,0,0,0,0,0,-0.0347,-0.036,-0.0368,-0.0376,-0.0417,-0.0436,-0.0439,-0.0453,-0.0457,-0.0454,-0.0428,-0.0424,-0.0314,-0.0355,-0.0346,-0.0292,-0.0185,-0.0177,-0.0171,-0.0168,-0.0157,-0.0148,0,0,0,0,0,0,-0.0322,-0.0363,-0.0372,-0.0398,-0.0413,-0.0439,-0.0445,-0.0451,-0.0432,-0.0427,-0.0406,-0.0397,-0.0333,-0.0308,-0.0354,-0.0211,-0.0238,-0.0229,-0.0239,-0.0229,-0.0221,-0.0213,-0.0355,0,0,0,0,0,-0.0321,-0.0337,-0.0371,-0.0387,-0.0399,-0.0419,-0.0427,-0.0436,-0.043,-0.0424,-0.0402,-0.0353,-0.0295,-0.0263,-0.0221,-0.0157,-0.0134,-0.0103,-0.0095,-0.0089,-0.0071,0.0022,0.0039,-0.0143,-0.0143,-0.0143,0,0,-0.0315,-0.034,-0.0349,-0.0382,-0.0398,-0.0401,-0.0423,-0.0437,-0.0417,-0.0414,-0.0372,-0.0337,-0.0273,-0.02,-0.0165,-0.0174,-0.0032,-0.008,-0.0076,-0.006,0.0031,0.0049,0.0064,-0.0138,-0.0139,-0.014,0,0,-0.0315,-0.0337,-0.0351,-0.0361,-0.0386,-0.0391,-0.0393,-0.0411,-0.0396,-0.036,-0.0333,-0.0266,-0.0204,-0.0135,-0.0092,-0.0005,-0.0001,0.0016,0.0069,0.0159,0.0174,0.0187,0.0191,0.0205,0.003,0.003,0.003,0,-0.0305,-0.0328,-0.0354,-0.0366,-0.0365,-0.0383,-0.038,-0.0366,-0.0357,-0.0318,-0.034,-0.0197,-0.0161,-0.0029,0.0,0.0013,0.0032,0.0014,0.0166,0.018,0.0194,0.0196,0.0211,0.0031,0.0031,0.0031,0.0031,0,-0.0312,-0.0325,-0.0334,-0.0345,-0.0343,-0.0345,-0.0335,-0.031,-0.0294,-0.0267,-0.0161,-0.0109,-0.0014,0.0018,0.0029,0.0168,0.0134,0.0149,0.0127,0.0212,0.0209,0.0224,0.0033,0.0032,0.0032,0.0032,0,0,-0.0296,-0.0331,-0.033,-0.0324,-0.0329,-0.0322,-0.0277,-0.0227,-0.0167,-0.0136,-0.004,0.0059,0.0086,0.014,0.018,0.0259,0.0344,0.0244,0.0248,0.0223,0.0483,0.043,0.0441,0.0382,0.0386,0.0389,0.0421,0,-0.0287,-0.0303,-0.0312,-0.0288,-0.029,-0.0269,-0.0217,-0.0164,-0.0112,-0.0023,0.0061,0.0154,0.0136,0.019,0.0268,0.0339,0.0396,0.0331,0.0428,0.043,0.0354,0.0463,0.044,0.0466,0.0436,0.0439,0.0441,0,-0.0285,-0.0292,-0.0287,-0.025,-0.0243,-0.0216,-0.0116,-0.0072,0.0046,0.009,0.0192,0.0242,0.0371,0.0339,0.0487,0.0442,0.0465,0.0499,0.0502,0.047,0.0411,0.0392,0.0496,0.0497,0.0465,0.0463,0.0461,0,-0.026,-0.0261,-0.0249,-0.0243,-0.0211,-0.0169,-0.0129,-0.0029,0.0039,0.0169,0.0233,0.0367,0.0444,0.0521,0.0564,0.054,0.0701,0.0679,0.0643,0.0635,0.0647,0.0634,0.0751,0.0787,0.0787,0.0787,0.0787,0,-0.0246,-0.0227,-0.0236,-0.0225,-0.0161,-0.0145,-0.0045,0.0014,0.0125,0.0229,0.0294,0.0397,0.05,0.0589,0.0611,0.0671,0.0737,0.0676,0.0673,0.0643,0.063,0.0655,0.0657,0.0788,0.0788,0.0788,0.0787,0,-0.0215,-0.0236,-0.0209,-0.0176,-0.0158,-0.0106,-0.0015,0.0069,0.0145,0.0284,0.0327,0.0451,0.0556,0.062,0.0745,0.0728,0.0796,0.0785,0.0694,0.0681,0.0632,0.0635,0.0768,0.0795,0.076,0.0759,0.0758,0,-0.0199,-0.0195,-0.0169,-0.0142,-0.0124,-0.0056,0.0006,0.0081,0.0165,0.0317,0.0395,0.0516,0.0613,0.0731,0.0751,0.078,0.0797,0.0745,0.0716,0.0656,0.0658,0.0665,0.0679,0.0708,0.0707,0.0706,0.0706,0,-0.0143,-0.0145,-0.0123,-0.0083,-0.0032,0.0037,0.0119,0.018,0.0285,0.0381,0.0514,0.0593,0.0681,0.0725,0.0736,0.0743,0.0753,0.0728,0.0741,0.0704,0.0653,0.0665,0.0591,0.0699,0.07,0.07,0.0701,0.0701,-0.0086,-0.006,-0.0046,0.0003,0.0056,0.0136,0.0203,0.0285,0.0399,0.0534,0.0579,0.0671,0.0692,0.0716,0.0717,0.0676,0.0716,0.0658,0.068,0.0702,0.0712,0.0576,0.0637,0.0638,0.0638,0.0638,0.0638,0,-0.0007,0.0007,0.0048,0.0105,0.0176,0.0188,0.0292,0.0351,0.047,0.0559,0.0646,0.0673,0.0692,0.0683,0.0637,0.0629,0.0652,0.0639,0.0669,0.0699,0.0646,0.0626,0.0599,0.0599,0.0599,0.0599,0.0598,0.0598,0.0037,0.0081,0.0089,0.0202,0.025,0.0344,0.0402,0.0462,0.052,0.0592,0.0614,0.063,0.0612,0.0621,0.0612,0.062,0.068,0.0665,0.0718,0.0675,0.0679,0.0683,0.0667,0.0648,0.0648,0.0766,0.0767,0.0767]}],[{"header":{"parameterUnit":"m.s-1","parameterCategory":2,"la1":30.2991,"la2":30.254,"lo1":-89.0895,"lo2":-89.0444,"dy":0.0017,"dx":0.0017,"nx":28,"ny":28,"refTime":"2024-08-02T09:00:00:Z","depth":"2","parameterNumber":2,"parameterNumberName":"U-component_of_CURRENTS"},"data":[0,0,0,0,0,0,0,0,0,0,0,0,0,0,0,0,0,0,0,0,0,0,0,0,0,0,0,0,0,0,0,0,0,0,0,0,0,0,0,0,0,0,0,0,0,0,0,0,0,0,0,0,0,0,0,0,0,0,0.1162,0.1162,0,0.1163,0.1163,0.1163,0.1166,0.1167,0.1167,0.1167,0.1213,0.1214,0.1215,0,0,0,0,0,0,0,0,0,0,0,0,0,0.1141,0.1142,0.1162,0.1162,0.1163,0.1163,0.1163,0.1163,0.1166,0.1167,0.1167,0.1167,0.1213,0.1214,0.1215,0,0,0,0,0,0,0,0,0,0,0,0,0,0.1145,0.1142,0.1162,0.1167,0.1167,0.1163,0.1163,0.1163,0.1166,0.1167,0.1167,0.1168,0.1213,0.1214,0.1215,0.1213,0,0,0.1219,0.122,0,0,0,0,0,0,0,0,0.1144,0.1145,0.1166,0.1166,0.1167,0.1168,0.1173,0.1183,0.1166,0.1163,0.1167,0.1168,0.1204,0.1206,0.12,0.1215,0.1217,0.122,0.122,0.1221,0.1221,0,0,0,0,0,0,0,0.1144,0.1145,0.116,0.1166,0.1167,0.1161,0.1162,0.1174,0.1179,0.1164,0.1165,0.1169,0.1204,0.1199,0.1201,0.1218,0.1219,0.1221,0.1222,0.1222,0.1347,0.135,0,0,0,0,0,0,0.115,0.1145,0.116,0.116,0.116,0.1162,0.1162,0.1165,0.1178,0.1181,0.1169,0.1169,0.1196,0.12,0.1203,0.1269,0.1221,0.1222,0.1223,0.1345,0.1348,0.135,0,0,0,0,0,0,0.115,0.1152,0.116,0.1155,0.1156,0.1162,0.1164,0.1164,0.1183,0.1182,0.1185,0.119,0.1197,0.1201,0.123,0.1269,0.1223,0.1224,0.1342,0.1346,0.1349,0.1359,0,0,0,0,0,0,0.1149,0.1151,0.1159,0.1155,0.1156,0.1171,0.1164,0.1164,0.1185,0.1186,0.1201,0.1205,0.1197,0.1228,0.1232,0.127,0.1225,0.1339,0.1343,0.1348,0.1355,0.1362,0.1368,0,0,0,0,0,0.1148,0.1158,0.1159,0.1161,0.1165,0.1171,0.1171,0.1175,0.1186,0.1194,0.1207,0.1205,0.1262,0.123,0.1234,0.1273,0.1336,0.1342,0.1348,0.1352,0.1361,0.1368,0,0,0,0,0,0,0.116,0.1159,0.116,0.1171,0.1177,0.1173,0.1186,0.1191,0.1206,0.1218,0.1216,0.122,0.1264,0.1275,0.124,0.133,0.1308,0.1315,0.1311,0.1319,0.1326,0.1325,0.1226,0,0,0,0,0,0.1164,0.1167,0.117,0.1181,0.1188,0.1193,0.1199,0.1205,0.1216,0.1223,0.1235,0.1262,0.1287,0.1306,0.1324,0.1363,0.1389,0.1402,0.1409,0.1414,0.142,0.1529,0.1546,0.1369,0.1369,0.1369,0,0,0.1171,0.1173,0.1175,0.1183,0.119,0.119,0.1198,0.122,0.1224,0.1228,0.1251,0.1279,0.1302,0.1341,0.1366,0.1357,0.1469,0.1421,0.1425,0.1429,0.1537,0.1554,0.1569,0.1373,0.1372,0.1371,0,0,0.1183,0.1192,0.1197,0.1198,0.1214,0.1211,0.1225,0.1239,0.1254,0.1272,0.129,0.1342,0.1366,0.1398,0.1414,0.1476,0.1496,0.15,0.1533,0.1639,0.1654,0.1668,0.1673,0.1688,0.1509,0.1509,0.1509,0,0.1182,0.1196,0.1202,0.1204,0.1206,0.1223,0.1228,0.1237,0.126,0.1288,0.1285,0.1373,0.139,0.1458,0.148,0.1489,0.1527,0.149,0.1646,0.166,0.1674,0.1678,0.1693,0.151,0.151,0.151,0.151,0,0.12,0.1204,0.1212,0.1209,0.1212,0.1226,0.1233,0.1259,0.1282,0.1299,0.1379,0.1413,0.1476,0.1499,0.1498,0.1619,0.1602,0.1633,0.1617,0.1692,0.169,0.1706,0.1512,0.1512,0.1511,0.1511,0,0,0.1195,0.1216,0.1218,0.1216,0.1219,0.1221,0.1241,0.1272,0.1307,0.135,0.1413,0.1472,0.1526,0.1553,0.1593,0.168,0.1785,0.1704,0.1709,0.1691,0.1965,0.1671,0.166,0.1862,0.1866,0.1869,0.1905,0,0.1202,0.1216,0.1221,0.1218,0.1221,0.1233,0.1245,0.1277,0.1317,0.1381,0.1459,0.1529,0.1537,0.1594,0.1684,0.1769,0.1838,0.1768,0.1911,0.1913,0.163,0.1673,0.1561,0.1561,0.192,0.1923,0.1925,0,0.1213,0.1218,0.1235,0.123,0.1235,0.1237,0.1279,0.1293,0.1379,0.1423,0.152,0.1578,0.1698,0.1711,0.1882,0.1846,0.191,0.1963,0.1967,0.1703,0.165,0.1558,0.1577,0.1952,0.1949,0.1947,0.1946,0,0.1222,0.1218,0.1239,0.1235,0.124,0.1261,0.1269,0.1327,0.1364,0.1477,0.1534,0.1663,0.1748,0.1872,0.1928,0.1953,0.2085,0.2136,0.1918,0.1896,0.1828,0.1789,0.2275,0.2275,0.2275,0.2275,0.2275,0,0.123,0.1237,0.1249,0.1258,0.1274,0.1272,0.1317,0.135,0.1428,0.1496,0.1577,0.1653,0.1812,0.1882,0.1951,0.1921,0.2104,0.191,0.1898,0.1815,0.1777,0.2153,0.2139,0.2276,0.2276,0.2276,0.2276,0,0.1249,0.1265,0.127,0.1281,0.1285,0.1301,0.1331,0.1367,0.1438,0.1538,0.1585,0.1687,0.1744,0.18,0.1959,0.1907,0.1938,0.1888,0.1697,0.1656,0.1679,0.1665,0.1685,0.1675,0.1667,0.166,0.1654,0,0.1268,0.1277,0.1287,0.1292,0.1305,0.1323,0.1342,0.1386,0.143,0.1549,0.1602,0.1661,0.166,0.1648,0.1602,0.1569,0.1727,0.1411,0.1421,0.1638,0.1627,0.1626,0.1623,0.1351,0.1343,0.1336,0.1331,0,0.1278,0.1291,0.13,0.1314,0.133,0.1344,0.1379,0.1403,0.1477,0.1503,0.1541,0.1535,0.1484,0.134,0.1206,0.1199,0.1389,0.1265,0.1644,0.1448,0.1307,0.1299,0.1313,0.1274,0.128,0.1284,0.1287,0.1289,0.1281,0.1286,0.1303,0.1308,0.1348,0.1377,0.1333,0.1349,0.135,0.1331,0.1403,0.1272,0.1251,0.0921,0.0876,0.0819,0.0944,0.0937,0.0967,0.1002,0.0887,0.0733,0.0568,0.0569,0.057,0.0572,0.0573,0,0.1245,0.1271,0.1283,0.1299,0.1316,0.1351,0.1356,0.126,0.1175,0.1138,0.106,0.085,0.0683,0.0673,0.0498,0.043,0.0555,0.0408,0.0626,0.0678,0.0725,0.0608,0.021,0.0209,0.0208,0.0208,0,0,0.1235,0.123,0.1231,0.1247,0.1268,0.1244,0.1205,0.105,0.0954,0.0759,0.0618,0.0571,0.0589,0.0379,0.0348,0.0265,0.0482,0.0231,0.0516,0.0824,0.0872,0.1006,0.0874,0,0,0,0,0]},{"header":{"parameterUnit":"m.s-1","parameterCategory":2,"la1":30.2991,"la2":30.254,"lo1":-89.0895,"lo2":-89.0444,"dy":0.0017,"dx":0.0017,"nx":28,"ny":28,"refTime":"2024-08-02T09:00:00:Z","depth":"2","parameterNumber":3,"parameterNumberName":"V-component_of_CURRENTS"},"data":[0,0,0,0,0,0,0,0,0,0,0,0,0,0,0,0,0,0,0,0,0,0,0,0,0,0,0,0,0,0,0,0,0,0,0,0,0,0,0,0,0,0,0,0,0,0,0,0,0,0,0,0,0,0,0,0,0,0,-0.023,-0.0231,0,-0.0303,-0.0303,-0.0304,-0.0348,-0.0348,-0.0349,-0.0349,-0.035,-0.0349,-0.0349,0,0,0,0,0,0,0,0,0,0,0,0,0,-0.0127,-0.0128,-0.023,-0.0231,-0.0232,-0.0302,-0.0303,-0.0304,-0.0348,-0.0348,-0.0349,-0.035,-0.035,-0.0349,-0.0349,0,0,0,0,0,0,0,0,0,0,0,0,0,-0.0179,-0.0129,-0.023,-0.0265,-0.027,-0.0302,-0.0303,-0.0304,-0.0347,-0.0348,-0.0349,-0.035,-0.035,-0.0349,-0.0348,-0.0327,0,0,-0.0346,-0.0346,0,0,0,0,0,0,0,0,-0.0176,-0.0183,-0.0259,-0.0263,-0.0268,-0.032,-0.0267,-0.0309,-0.0347,-0.0314,-0.0349,-0.035,-0.0335,-0.0335,-0.0343,-0.0327,-0.0327,-0.0346,-0.0346,-0.0345,-0.0345,0,0,0,0,0,0,0,-0.0173,-0.018,-0.0255,-0.026,-0.0266,-0.0277,-0.0285,-0.0275,-0.0315,-0.0317,-0.0321,-0.0335,-0.0336,-0.0344,-0.0343,-0.0327,-0.0346,-0.0345,-0.0345,-0.0345,-0.0265,-0.0263,0,0,0,0,0,0,-0.0171,-0.0176,-0.0253,-0.0258,-0.0227,-0.0279,-0.0288,-0.03,-0.0317,-0.0322,-0.0334,-0.0337,-0.0345,-0.0344,-0.0343,-0.0302,-0.0345,-0.0345,-0.0344,-0.0267,-0.0265,-0.0263,0,0,0,0,0,0,-0.0168,-0.0176,-0.025,-0.0222,-0.0232,-0.028,-0.0293,-0.0301,-0.0318,-0.0331,-0.0334,-0.0345,-0.0345,-0.0344,-0.0339,-0.0303,-0.0344,-0.0343,-0.0268,-0.0266,-0.0264,-0.023,0,0,0,0,0,0,-0.0165,-0.0175,-0.0179,-0.0221,-0.0234,-0.027,-0.0293,-0.0302,-0.0326,-0.0331,-0.0341,-0.0342,-0.0346,-0.034,-0.0338,-0.0303,-0.0343,-0.0271,-0.0267,-0.0264,-0.0233,-0.0226,-0.0221,0,0,0,0,0,-0.0161,-0.0169,-0.0178,-0.0188,-0.0239,-0.027,-0.0277,-0.0311,-0.0326,-0.033,-0.0338,-0.0342,-0.0318,-0.0339,-0.0337,-0.03,-0.0272,-0.0268,-0.0265,-0.0236,-0.0228,-0.0221,0,0,0,0,0,0,-0.0139,-0.0176,-0.0187,-0.0209,-0.0236,-0.0279,-0.0293,-0.0312,-0.0322,-0.0327,-0.0335,-0.0335,-0.0314,-0.031,-0.0333,-0.0265,-0.0289,-0.0285,-0.0267,-0.026,-0.0254,-0.0231,-0.0342,0,0,0,0,0,-0.0132,-0.014,-0.0181,-0.0198,-0.0213,-0.025,-0.0267,-0.0289,-0.0309,-0.0317,-0.0325,-0.0316,-0.0294,-0.0284,-0.0274,-0.0243,-0.0218,-0.0212,-0.0206,-0.0201,-0.0178,-0.0099,-0.0083,-0.025,-0.0251,-0.0251,0,0,-0.0132,-0.0151,-0.0159,-0.0192,-0.0218,-0.0227,-0.0262,-0.0291,-0.0283,-0.0311,-0.0304,-0.0305,-0.0283,-0.0251,-0.0238,-0.0245,-0.0147,-0.0196,-0.0192,-0.0171,-0.0093,-0.0076,-0.0062,-0.0248,-0.0248,-0.0249,0,0,-0.0133,-0.015,-0.0157,-0.0171,-0.0207,-0.0219,-0.0227,-0.0267,-0.0271,-0.0268,-0.0272,-0.0247,-0.024,-0.0201,-0.0181,-0.0129,-0.0124,-0.0131,-0.0074,0.0003,0.0017,0.0031,0.0052,0.0067,-0.0119,-0.0119,-0.0119,0,-0.0125,-0.0142,-0.0165,-0.0173,-0.0178,-0.0212,-0.0214,-0.0216,-0.0245,-0.0227,-0.0261,-0.0205,-0.0201,-0.0117,-0.0105,-0.0112,-0.0093,-0.0109,0.0011,0.0025,0.0038,0.0057,0.0073,-0.0117,-0.0117,-0.0118,-0.0118,0,-0.0133,-0.014,-0.0148,-0.0153,-0.0157,-0.017,-0.0174,-0.017,-0.018,-0.0175,-0.0125,-0.0117,-0.0076,-0.0066,-0.0075,0.003,0.0002,0.0001,-0.0009,0.0057,0.0072,0.0088,-0.0114,-0.0115,-0.0116,-0.0116,0,0,-0.0124,-0.0145,-0.0146,-0.0138,-0.0147,-0.0149,-0.012,-0.0096,-0.0058,-0.0066,-0.0003,0.0032,0.0032,0.0058,0.0063,0.0128,0.0214,0.0101,0.0104,0.0118,0.0345,0.0257,0.0265,0.023,0.0234,0.0237,0.0306,0,-0.0119,-0.0124,-0.013,-0.011,-0.0111,-0.0104,-0.0067,-0.0039,-0.0017,0.0038,0.0078,0.0125,0.0084,0.0107,0.0168,0.0212,0.0264,0.0193,0.0283,0.0285,0.0198,0.0285,0.025,0.0304,0.0321,0.0324,0.0326,0,-0.0127,-0.0119,-0.0115,-0.0077,-0.0075,-0.0059,0.001,0.0037,0.0116,0.0136,0.0197,0.0217,0.031,0.0262,0.038,0.0332,0.0343,0.0366,0.0369,0.0295,0.023,0.0248,0.0333,0.0353,0.0351,0.0349,0.0347,0,-0.0116,-0.0103,-0.0093,-0.0087,-0.0054,-0.003,-0.0003,0.0063,0.0112,0.0203,0.0252,0.0344,0.0401,0.0453,0.0468,0.0438,0.0586,0.0553,0.0483,0.0474,0.0469,0.0454,0.0647,0.0647,0.0647,0.0647,0.0647,0,-0.011,-0.0094,-0.0089,-0.0081,-0.0032,-0.0019,0.0049,0.0091,0.0176,0.0263,0.0299,0.0391,0.0456,0.053,0.0527,0.0552,0.0633,0.0518,0.051,0.0473,0.0457,0.0522,0.0507,0.0649,0.0649,0.0648,0.0648,0,-0.0099,-0.0111,-0.0084,-0.005,-0.0037,-0.0001,0.0068,0.0133,0.0191,0.0312,0.0345,0.046,0.0545,0.0575,0.0672,0.0626,0.0657,0.0636,0.0552,0.0532,0.0473,0.0458,0.0585,0.0583,0.0581,0.058,0.0579,0,-0.0094,-0.009,-0.0061,-0.0037,-0.0022,0.0027,0.0074,0.0134,0.0211,0.0358,0.0434,0.0537,0.0617,0.0687,0.0646,0.0627,0.0643,0.0557,0.0498,0.0499,0.0478,0.0466,0.0455,0.0496,0.0494,0.0493,0.0492,0,-0.0052,-0.0056,-0.0027,0.001,0.0048,0.0109,0.0177,0.0242,0.0338,0.0432,0.0578,0.0644,0.0671,0.0655,0.0586,0.056,0.0553,0.0521,0.0621,0.0491,0.0414,0.0393,0.0385,0.0479,0.048,0.0481,0.0482,0.0482,-0.0008,0.0023,0.0046,0.0088,0.0127,0.0205,0.0271,0.035,0.0467,0.0588,0.0647,0.0687,0.0665,0.0545,0.0513,0.0439,0.0451,0.0414,0.0421,0.0428,0.0379,0.0302,0.0334,0.0334,0.0335,0.0335,0.0335,0,0.0067,0.009,0.0132,0.019,0.0253,0.0253,0.0357,0.0411,0.0537,0.0585,0.0654,0.059,0.0554,0.0505,0.0368,0.0311,0.0326,0.0296,0.0337,0.0348,0.0359,0.0309,0.0244,0.0244,0.0244,0.0244,0,0,0.0111,0.0168,0.0184,0.0296,0.0339,0.0413,0.0473,0.0517,0.0535,0.0573,0.0551,0.0554,0.0514,0.0408,0.0359,0.029,0.0327,0.0271,0.0344,0.0406,0.0418,0.0418,0.0351,0,0,0,0,0]}],[{"header":{"parameterUnit":"m.s-1","parameterCategory":2,"la1":30.2991,"la2":30.254,"lo1":-89.0895,"lo2":-89.0444,"dy":0.0017,"dx":0.0017,"nx":28,"ny":28,"refTime":"2024-08-02T09:00:00:Z","depth":"4","parameterNumber":2,"parameterNumberName":"U-component_of_CURRENTS"},"data":[0,0,0,0,0,0,0,0,0,0,0,0,0,0,0,0,0,0,0,0,0,0,0,0,0,0,0,0,0,0,0,0,0,0,0,0,0,0,0,0,0,0,0,0,0,0,0,0,0,0,0,0,0,0,0,0,0,0,-0.0485,-0.0486,0,-0.053,-0.053,-0.0531,-0.057,-0.0571,-0.0572,-0.0572,-0.0554,-0.0553,-0.0552,0,0,0,0,0,0,0,0,0,0,0,0,0,-0.0309,-0.0313,-0.0485,-0.0486,-0.0487,-0.053,-0.053,-0.0531,-0.057,-0.0571,-0.0572,-0.0573,-0.0555,-0.0553,-0.0552,0,0,0,0,0,0,0,0,0,0,0,0,0,-0.0371,-0.0314,-0.0485,-0.0513,-0.0516,-0.053,-0.053,-0.0531,-0.057,-0.0571,-0.0572,-0.0573,-0.0555,-0.0554,-0.0552,-0.0522,0,0,-0.0547,-0.0546,0,0,0,0,0,0,0,0,-0.0368,-0.0377,-0.0508,-0.0511,-0.0515,-0.0548,-0.0462,-0.0525,-0.057,-0.0547,-0.0572,-0.0573,-0.0547,-0.0546,-0.055,-0.0521,-0.052,-0.0547,-0.0546,-0.0545,-0.0545,0,0,0,0,0,0,0,-0.0364,-0.0375,-0.0501,-0.0509,-0.0513,-0.0481,-0.0492,-0.0474,-0.0538,-0.0549,-0.0553,-0.0561,-0.0548,-0.0552,-0.055,-0.052,-0.0547,-0.0545,-0.0544,-0.0544,-0.0375,-0.0372,0,0,0,0,0,0,-0.0369,-0.0372,-0.0499,-0.0502,-0.0445,-0.0484,-0.0496,-0.0534,-0.054,-0.0543,-0.056,-0.0563,-0.0554,-0.0552,-0.0549,-0.0431,-0.0545,-0.0544,-0.0543,-0.0379,-0.0375,-0.0371,0,0,0,0,0,0,-0.0365,-0.0381,-0.0498,-0.0437,-0.045,-0.0487,-0.0529,-0.0535,-0.056,-0.0549,-0.0551,-0.0583,-0.0555,-0.0551,-0.051,-0.0434,-0.0543,-0.0541,-0.0383,-0.0378,-0.0373,-0.0247,0,0,0,0,0,0,-0.0361,-0.038,-0.0414,-0.0439,-0.0454,-0.0522,-0.0528,-0.0535,-0.0563,-0.0568,-0.0568,-0.0567,-0.0555,-0.0512,-0.0508,-0.0433,-0.054,-0.0387,-0.0381,-0.0374,-0.0256,-0.0238,-0.0223,0,0,0,0,0,-0.0355,-0.0402,-0.0416,-0.0431,-0.0499,-0.0522,-0.0527,-0.0553,-0.0564,-0.0578,-0.0545,-0.0568,-0.0467,-0.0508,-0.0504,-0.0427,-0.039,-0.0382,-0.0375,-0.0263,-0.0242,-0.0224,0,0,0,0,0,0,-0.0333,-0.0412,-0.0427,-0.0494,-0.0511,-0.0531,-0.0562,-0.0562,-0.0552,-0.0558,-0.0537,-0.0532,-0.0457,-0.0466,-0.0512,-0.0357,-0.0427,-0.0418,-0.0342,-0.0323,-0.0307,-0.0297,-0.0539,0,0,0,0,0,-0.0346,-0.0418,-0.0449,-0.0503,-0.0524,-0.0541,-0.0557,-0.0566,-0.056,-0.0561,-0.0525,-0.0484,-0.0418,-0.0396,-0.0354,-0.0288,-0.0331,-0.023,-0.0214,-0.0201,-0.0187,-0.0188,-0.0171,-0.0345,-0.0345,-0.0345,0,0,-0.0349,-0.0405,-0.0442,-0.0505,-0.0533,-0.0527,-0.0555,-0.059,-0.0538,-0.0555,-0.0473,-0.0436,-0.0389,-0.0291,-0.0258,-0.0294,-0.0175,-0.0191,-0.0179,-0.0174,-0.0178,-0.0162,-0.0147,-0.034,-0.0341,-0.0342,0,0,-0.038,-0.0449,-0.0506,-0.0519,-0.0563,-0.0552,-0.0562,-0.0561,-0.0527,-0.0441,-0.0417,-0.0343,-0.0251,-0.019,-0.0149,-0.0028,-0.0091,-0.0004,0.0088,0.0088,0.0101,0.0113,0.0062,0.0068,0.0006,0.0006,0.0006,0,-0.0366,-0.0449,-0.0515,-0.0545,-0.0529,-0.0557,-0.054,-0.0507,-0.0463,-0.0401,-0.0399,-0.0219,-0.019,-0.0057,0.0015,0.001,-0.0022,0.0008,0.0106,0.0117,0.0126,0.0071,0.0076,0.0013,0.0012,0.0011,0.0011,0,-0.0423,-0.0466,-0.05,-0.0533,-0.0514,-0.0526,-0.047,-0.0417,-0.0353,-0.0291,-0.0146,-0.0083,0.0024,0.0066,0.0095,0.0204,0.0148,0.0121,0.0048,0.0151,0.0086,0.0089,0.0023,0.002,0.0018,0.0017,0,0,-0.0417,-0.0519,-0.0521,-0.0509,-0.0504,-0.048,-0.0382,-0.0284,-0.0212,-0.0109,0.0003,0.0172,0.0195,0.0244,0.0275,0.0302,0.0352,0.0263,0.026,0.0197,0.032,0.0299,0.0298,0.0342,0.0344,0.0345,0.024,0,-0.0422,-0.0477,-0.0493,-0.0447,-0.0447,-0.0388,-0.028,-0.018,-0.0092,0.0007,0.0105,0.0206,0.0264,0.0312,0.0367,0.034,0.0369,0.0381,0.0244,0.0239,0.0196,0.0305,0.0351,0.0241,0.0241,0.0242,0.0242,0,-0.0448,-0.0475,-0.0463,-0.0391,-0.0376,-0.0296,-0.0131,-0.0046,0.0079,0.014,0.0251,0.0285,0.0385,0.0386,0.0428,0.0432,0.0415,0.0385,0.0379,0.032,0.0226,0.0124,0.0245,0.0245,0.0245,0.0244,0.0244,0,-0.042,-0.0422,-0.0404,-0.0389,-0.0318,-0.0211,-0.0115,0.0024,0.0085,0.0206,0.0224,0.0343,0.0363,0.0397,0.0384,0.0407,0.0355,0.0355,0.0318,0.0311,0.0295,0.0284,0.0389,0.039,0.039,0.039,0.039,0,-0.0413,-0.0395,-0.0376,-0.0364,-0.0243,-0.0165,-0.0022,0.0073,0.0156,0.0213,0.0293,0.0318,0.037,0.0349,0.0363,0.0339,0.034,0.0356,0.0308,0.0348,0.0345,0.0294,0.0285,0.0386,0.0387,0.0388,0.0388,0,-0.0406,-0.0429,-0.0399,-0.0306,-0.0248,-0.0141,0.0003,0.0064,0.0154,0.021,0.0235,0.027,0.0284,0.0283,0.027,0.028,0.0259,0.0244,0.0244,0.0192,0.0217,0.0216,0.0219,0.0218,0.0217,0.0216,0.0216,0,-0.042,-0.0422,-0.0365,-0.0322,-0.0265,-0.012,-0.0044,0.0068,0.0105,0.0187,0.0185,0.0205,0.0246,0.0181,0.0204,0.0191,0.021,0.0162,0.0284,0.026,0.0212,0.0212,0.0212,0.0214,0.0214,0.0214,0.0214,0,-0.0418,-0.042,-0.0402,-0.0334,-0.0243,-0.0175,-0.0046,-0.003,0.0082,0.0122,0.0164,0.0193,0.0181,0.0189,0.0152,0.0159,0.0183,0.0154,0.0158,0.0273,0.0254,0.0207,0.0208,0.021,0.0211,0.0211,0.0211,0,-0.041,-0.0396,-0.0391,-0.0306,-0.0254,-0.0206,-0.0138,-0.0061,-0.0012,0.0097,0.01,0.015,0.0179,0.0168,0.0142,0.014,0.0186,0.0188,0.0191,0.0195,0.0245,0.0221,0.015,0,0,0,0,0,-0.0379,-0.0369,-0.0343,-0.0278,-0.0264,-0.0216,-0.0146,-0.0099,0.0,0.0029,0.0085,0.0108,0.014,0.0132,0.0136,0.0127,0.0157,0.0127,0.0154,0.0194,0.0197,0.0264,0,0,0,0,0,0,-0.0353,-0.0347,-0.0348,-0.0301,-0.0257,-0.0225,-0.0185,-0.0131,-0.0095,0.0005,0.0012,0.0093,0.0099,0.0144,0.0132,0.0134,0.0147,0.0158,0.0157,0.0192,0.0195,0.0198,0.0267,0,0,0,0,0]},{"header":{"parameterUnit":"m.s-1","parameterCategory":2,"la1":30.2991,"la2":30.254,"lo1":-89.0895,"lo2":-89.0444,"dy":0.0017,"dx":0.0017,"nx":28,"ny":28,"refTime":"2024-08-02T09:00:00:Z","depth":"4","parameterNumber":3,"parameterNumberName":"V-component_of_CURRENTS"},"data":[0,0,0,0,0,0,0,0,0,0,0,0,0,0,0,0,0,0,0,0,0,0,0,0,0,0,0,0,0,0,0,0,0,0,0,0,0,0,0,0,0,0,0,0,0,0,0,0,0,0,0,0,0,0,0,0,0,0,0.0397,0.0398,0,0.0455,0.0456,0.0456,0.0531,0.0532,0.0534,0.0535,0.0515,0.0514,0.0512,0,0,0,0,0,0,0,0,0,0,0,0,0,0.0296,0.0297,0.0397,0.0398,0.0398,0.0455,0.0456,0.0457,0.0531,0.0533,0.0534,0.0535,0.0516,0.0514,0.0512,0,0,0,0,0,0,0,0,0,0,0,0,0,0.0345,0.0298,0.0397,0.0443,0.0447,0.0455,0.0456,0.0457,0.0531,0.0533,0.0534,0.0536,0.0517,0.0514,0.0512,0.0459,0,0,0.0504,0.0503,0,0,0,0,0,0,0,0,0.0342,0.0349,0.0435,0.044,0.0445,0.0488,0.0413,0.0454,0.053,0.0499,0.0535,0.0537,0.0498,0.0497,0.0504,0.0458,0.0457,0.0504,0.0502,0.0501,0.05,0,0,0,0,0,0,0,0.0339,0.0346,0.042,0.0436,0.0442,0.0441,0.0451,0.0421,0.0485,0.0502,0.0507,0.0514,0.05,0.0507,0.0504,0.0457,0.0504,0.0502,0.05,0.0499,0.0384,0.0383,0,0,0,0,0,0,0.0333,0.0343,0.0418,0.0422,0.0397,0.0442,0.0453,0.0472,0.0488,0.0493,0.0512,0.0517,0.051,0.0507,0.0504,0.0487,0.0501,0.0499,0.0497,0.0386,0.0384,0.0382,0,0,0,0,0,0,0.0331,0.034,0.0416,0.0383,0.0393,0.0442,0.0463,0.0472,0.0512,0.0496,0.05,0.0547,0.0512,0.0507,0.0494,0.0485,0.0498,0.0495,0.0387,0.0385,0.0383,0.0424,0,0,0,0,0,0,0.0328,0.0339,0.0353,0.0383,0.0395,0.0444,0.0462,0.0472,0.0511,0.0519,0.0526,0.0525,0.0513,0.0498,0.0491,0.0482,0.0493,0.0389,0.0386,0.0384,0.0425,0.0424,0.0422,0,0,0,0,0,0.0324,0.0341,0.0354,0.0363,0.0413,0.0444,0.0451,0.049,0.0511,0.0533,0.0527,0.0526,0.0474,0.0495,0.0488,0.0477,0.0391,0.0387,0.0384,0.0425,0.0424,0.0423,0,0,0,0,0,0,0.0305,0.0351,0.0366,0.0397,0.0427,0.0458,0.049,0.0502,0.0517,0.0537,0.0515,0.0512,0.0492,0.0471,0.0494,0.043,0.0428,0.0423,0.0461,0.046,0.0459,0.0494,0.0491,0,0,0,0,0,0.0304,0.0339,0.037,0.04,0.0424,0.0458,0.0478,0.0506,0.052,0.0533,0.0533,0.051,0.0463,0.0457,0.0426,0.0397,0.0376,0.0379,0.0378,0.0377,0.0397,0.0322,0.0317,0.0371,0.0371,0.0371,0,0,0.03,0.0336,0.0352,0.0399,0.0438,0.047,0.0478,0.053,0.0541,0.0521,0.0548,0.0514,0.0453,0.0424,0.0411,0.0413,0.0354,0.0373,0.0373,0.0393,0.0318,0.0313,0.0309,0.0368,0.0369,0.0369,0,0,0.0313,0.0356,0.0386,0.0419,0.0478,0.0501,0.052,0.0565,0.0578,0.058,0.0553,0.0517,0.048,0.043,0.0392,0.036,0.0349,0.0347,0.0377,0.0304,0.03,0.0296,0.0289,0.0284,0.0349,0.0349,0.035,0,0.0308,0.0366,0.0397,0.0437,0.0479,0.0519,0.0562,0.0564,0.0591,0.0582,0.0599,0.0512,0.0475,0.0392,0.0391,0.036,0.0345,0.0394,0.0306,0.0302,0.0297,0.029,0.0284,0.0351,0.0351,0.0351,0.0351,0,0.0338,0.0395,0.0429,0.0498,0.0526,0.0591,0.0601,0.0619,0.064,0.0628,0.0582,0.0527,0.048,0.0441,0.0415,0.0349,0.036,0.0314,0.0321,0.0295,0.0288,0.0282,0.0353,0.0353,0.0352,0.0352,0,0,0.032,0.0431,0.0447,0.0499,0.0583,0.061,0.0626,0.0641,0.0633,0.0631,0.0599,0.0523,0.0513,0.0469,0.0417,0.0357,0.0318,0.0344,0.0339,0.0359,0.0214,0.0217,0.021,0.0262,0.026,0.0259,0.0234,0,0.0358,0.0449,0.0488,0.0577,0.0641,0.0674,0.0682,0.0679,0.0664,0.0635,0.056,0.0518,0.0512,0.0491,0.0433,0.0329,0.0299,0.0333,0.0217,0.0216,0.0238,0.02,0.0254,0.0229,0.0227,0.0226,0.0225,0,0.0382,0.0455,0.0562,0.0646,0.0673,0.0723,0.0752,0.0753,0.0693,0.0666,0.0617,0.0565,0.049,0.0477,0.0347,0.0377,0.0327,0.0254,0.0249,0.0237,0.0204,0.0249,0.0212,0.0213,0.0214,0.0215,0.0216,0,0.0377,0.0496,0.0601,0.0642,0.0736,0.0778,0.0813,0.0784,0.0748,0.0697,0.066,0.0575,0.0522,0.0438,0.0337,0.0343,0.0185,0.0158,0.0124,0.0126,0.0117,0.0121,0.0081,0.0081,0.0081,0.0081,0.0082,0,0.0414,0.0483,0.0627,0.0685,0.0773,0.0822,0.0861,0.0847,0.0797,0.0736,0.0704,0.0617,0.0507,0.0405,0.0335,0.0219,0.0192,0.0139,0.0105,0.0138,0.0144,0.0115,0.0119,0.0081,0.0081,0.0081,0.0081,0,0.0392,0.0496,0.0611,0.0749,0.0788,0.0853,0.0891,0.0865,0.0855,0.0769,0.0756,0.063,0.0514,0.0414,0.0246,0.0208,0.0092,0.0065,0.0154,0.0125,0.0098,0.0104,0.0032,0.0031,0.0031,0.0031,0.0031,0,0.0392,0.0466,0.0641,0.07,0.0786,0.0875,0.0894,0.0895,0.0842,0.0753,0.0682,0.0578,0.0498,0.0287,0.019,0.0083,0.0062,0.005,0.0048,0.0111,0.0086,0.0093,0.0099,0.003,0.003,0.003,0.003,0,0.0382,0.0468,0.055,0.0665,0.0745,0.0808,0.0842,0.0791,0.0761,0.075,0.0603,0.0514,0.0379,0.0247,0.0181,0.0089,0.0074,0.0046,0.0046,0.0044,0.0108,0.0085,0.0092,0.0029,0.0029,0.0029,0.0029,0,0.0361,0.0399,0.0501,0.0601,0.069,0.0725,0.0752,0.0708,0.0669,0.0586,0.0527,0.0425,0.0365,0.0247,0.0159,0.01,0.0085,0.0083,0.0081,0.0081,0.01,0.0189,0.0106,0,0,0,0,0,0.0341,0.0348,0.0407,0.0509,0.0595,0.0658,0.0686,0.0695,0.0671,0.0563,0.0549,0.0432,0.0304,0.0228,0.0166,0.0147,0.0074,0.0075,0.0071,0.0022,0.0023,0.0036,0,0,0,0,0,0,0.0306,0.0348,0.0366,0.0423,0.0481,0.0546,0.0585,0.0575,0.0518,0.05,0.0418,0.0432,0.0292,0.0337,0.0166,0.0148,0.0142,0.0029,0.0028,0.0021,0.0022,0.0023,0.0037,0,0,0,0,0]}]]